Regional Weather Roundup
Issued by NWS Sioux Falls, SD

Home | Current Version | Previous Version | Text Only | Print | Product List | Glossary On
Versions: 1 2 3 4 5 6 7 8 9 10 11 12 13 14 15 16 17 18 19 20 21 22 23 24 25 26 27 28 29 30 31 32 33 34 35 36 37 38 39 40 41 42 43 44 45 46 47 48 49 50
000
ASUS43 KFSD 230710
RWRFSD

WEATHER ROUNDUP FOR SE SOUTH DAKOTA/SW MINNESOTA/NW IOWA
NATIONAL WEATHER SERVICE SIOUX FALLS SD
200 AM CDT WED APR 23 2014

NOTE: "FAIR" INDICATES FEW OR NO CLOUDS BELOW 12,000 FEET WITH NO
SIGNIFICANT WEATHER AND OR OBSTRUCTIONS TO VISIBILITY.


SDZ038>040-050-052>070-230800-
SOUTHEAST SOUTH DAKOTA

CITY           SKY/WX    TMP DP  RH WIND       PRES   REMARKS
CHAMBERLAIN      N/A     58  34  40 S26G37    29.75F
HURON          CLOUDY    57  33  40 SE18G29   29.81F
MADISON        CLOUDY    52  32  46 SE20G26   29.90F
MITCHELL       CLOUDY    56  35  45 SE23      29.83F
SIOUX FALLS    PTCLDY    53  34  48 SE17G25   29.92F
WINNER         FAIR      60  32  34 SE15      29.74F
YANKTON        CLOUDY    57  32  38 SE21G26   29.88F
$$

MNZ071-072-080-081-089-090-097-098-230800-
SOUTHWEST MINNESOTA

CITY           SKY/WX    TMP DP  RH WIND       PRES   REMARKS
FAIRMONT       CLOUDY    48  34  57 SE10      30.05F
JACKSON        CLOUDY    50  32  50 SE12      30.02S
LUVERNE        CLOUDY    54  34  47 SE15      29.97S
MARSHALL       CLOUDY    52  32  46 SE13G21   29.99S
MONTEVIDEO     CLOUDY    48  34  57 S16       30.01R
PIPESTONE      CLOUDY    52  36  54 SE15      29.94F
REDWOOD FALLS  CLOUDY    50  29  44 SE15      30.00F
TRACY          CLOUDY    52  34  51 SE13      30.00F
WINDOM         CLOUDY    52  36  54 SE14      30.01S
WORTHINGTON    CLOUDY    52  30  43 SE14      30.01S
$$

IAZ001>003-012>014-020>022-031-032-NEZ013-014-SDZ071-230800-
NORTHWEST IOWA

CITY           SKY/WX    TMP DP  RH WIND       PRES   REMARKS
CHEROKEE       CLOUDY    54  36  50 SE12      29.99S
DENISON        CLOUDY    54  34  47 SE12      29.98S
ESTHERVILLE    CLOUDY    48  38  68 SE14      30.01F
LE MARS        MOCLDY    55  36  47 SE13G18   29.96S
ORANGE CITY    CLOUDY    55  34  44 SE10G17   29.96F
SHELDON        CLOUDY    52  36  54 SE14      29.97S
SIOUX CITY     PTCLDY    55  34  45 SE12      29.95S
SPENCER        CLOUDY    52  35  52 SE12      30.00F
STORM LAKE     MOCLDY    50  36  57 SE14      30.01S
$$

ABBREVIATIONS USED IN REMARKS
   TC - TEMPERATURE IN CELSIUS
  WCI - WIND CHILL INDEX
   HX - HEAT INDEX
  VSB - VISIBILITY




USA.gov is the U.S. government's official web portal to all federal, state and local government web resources and services.